Coffeyville, KS

11:31 PM CDT on September 20, 2017 (GMT -0500)
Coffeyville Municipal

Weather History for KCFV - March, 2014

Change the Weather History Date:

Monday, March 3, 2014

  Actual Average Record
Temperature  
Mean Temperature 10 °F -  
Max Temperature 19 °F 48 °F 70 °F (2011)
Min Temperature 1 °F 29 °F 1 °F (2014)
Degree Days  
Heating Degree Days 55    
Moisture  
Dew Point -1 °F    
Average Humidity 64    
Maximum Humidity 85    
Minimum Humidity 41    
Precipitation  
Precipitation 0.00 in - - ()
Sea Level Pressure  
Sea Level Pressure 30.50 in    
Wind  
Wind Speed 11 mph (NNE)    
Max Wind Speed 17 mph    
Max Gust Speed 23 mph    
Visibility 7 miles    
Events Snow    
Averages and records for this station are not official NWS values.
T = Trace of Precipitation, MM = Missing Value Source: NWS Daily Summary

Daily Weather History Graph

Daily Weather History Graph

Search for Another Location

Airport or City:

Trip Planner

Search our weather history database for the weather conditions in past years. The results will help you decide how hot, cold, wet, or windy it might be!

Date:

Astronomy

Mar. 03, 2014 Rise Set
Actual Time 6:50 AM CST 6:18 PM CST
Civil Twilight 6:24 AM CST 6:44 PM CST
Nautical Twilight 5:54 AM CST 7:14 PM CST
Astronomical Twilight 5:24 AM CST 7:44 PM CST
Moon 8:03 AM CST (3/3) 9:17 PM CST (3/3)
Length of Visible Light 12h 20m
Length of Day
11h 27m
Waxing Crescent, 8% of the Moon is Illuminated
Mar 3
Waxing Crescent
Mar 8
First Quarter
Mar 16
Full
Mar 23
Last Quarter
Mar 30
New

Hourly Weather History & Observations

Time (CST) Temp. Windchill Dew Point Humidity Pressure Visibility Wind Dir Wind Speed Gust Speed Precip Events Conditions
12:14 AM 5.0 °F -13.0 °F -0.0 °F 80% 30.47 in 1.5 mi North 15.0 mph - 0.00 in Snow Light Snow
12:42 AM 5.0 °F -10.8 °F -0.0 °F 80% 30.48 in 1.0 mi North 11.5 mph - 0.00 in Snow Light Snow
12:50 AM 5.0 °F -11.6 °F 1.4 °F 85% 30.48 in 0.8 mi North 12.7 mph - 0.00 in Snow Light Snow
12:52 AM 5.0 °F -11.6 °F -0.0 °F 80% 30.53 in 0.8 mi North 12.7 mph - 0.00 in Snow Light Snow
1:14 AM 5.0 °F -13.0 °F -0.0 °F 80% 30.49 in 1.0 mi North 15.0 mph - 0.00 in Snow Light Snow
1:52 AM 5.0 °F -13.6 °F -0.0 °F 80% 30.56 in 1.8 mi North 16.1 mph - 0.00 in Snow Light Snow
2:01 AM 5.0 °F -12.3 °F -0.9 °F 76% 30.51 in 2.0 mi North 13.8 mph - 0.00 in Snow Light Snow
2:10 AM 5.0 °F -13.0 °F -0.9 °F 76% 30.51 in 3.0 mi North 15.0 mph - 0.00 in Snow Light Snow
2:52 AM 5.0 °F -13.0 °F -4.0 °F 66% 30.56 in 3.0 mi North 15.0 mph 23.0 mph 0.00 in Snow Light Snow
2:59 AM 5.0 °F -14.2 °F -2.9 °F 70% 30.51 in 2.0 mi North 17.3 mph - 0.00 in Snow Light Snow
3:10 AM 5.0 °F -12.3 °F -0.9 °F 76% 30.51 in 1.8 mi North 13.8 mph 21.9 mph 0.00 in Snow Light Snow
3:21 AM 5.0 °F -12.3 °F -0.9 °F 76% 30.51 in 2.5 mi North 13.8 mph - 0.00 in Snow Light Snow
3:29 AM 5.0 °F -12.3 °F -0.0 °F 80% 30.50 in 4.0 mi North 13.8 mph - 0.00 in Snow Light Snow
3:52 AM 5.0 °F -9.1 °F -0.9 °F 76% 30.55 in 10.0 mi NNE 9.2 mph - 0.00 in   Overcast
4:52 AM 5.0 °F -10.0 °F -8.0 °F 55% 30.56 in 10.0 mi North 10.4 mph - N/A   Clear
5:52 AM 3.0 °F -11.5 °F -9.0 °F 57% 30.56 in 10.0 mi North 9.2 mph - N/A   Clear
6:52 AM 1.9 °F -12.9 °F -9.0 °F 60% 30.55 in 10.0 mi North 9.2 mph - N/A   Clear
7:52 AM 3.0 °F -11.5 °F -9.0 °F 57% 30.55 in 10.0 mi NNE 9.2 mph - N/A   Clear
8:52 AM 6.1 °F -8.7 °F -8.0 °F 53% 30.60 in 10.0 mi North 10.4 mph - N/A   Clear
9:52 AM 9.0 °F -3.2 °F -6.0 °F 51% 30.59 in 10.0 mi NNE 8.1 mph - N/A   Clear
10:52 AM 10.0 °F 0.4 °F -5.1 °F 51% 30.60 in 10.0 mi NNW 5.8 mph - N/A   Clear
11:52 AM 12.9 °F 2.6 °F -2.9 °F 49% 30.61 in 10.0 mi WNW 6.9 mph - N/A   Clear
12:52 PM 16.0 °F 4.4 °F -4.0 °F 41% 30.51 in 10.0 mi ENE 9.2 mph - N/A   Clear
1:52 PM 18.0 °F 8.7 °F -0.9 °F 44% 30.50 in 10.0 mi North 6.9 mph - N/A   Clear
2:52 PM 18.0 °F 11.1 °F -0.0 °F 45% 30.47 in 10.0 mi ESE 4.6 mph - N/A   Clear
3:52 PM 19.0 °F 12.3 °F 1.0 °F 46% 30.45 in 10.0 mi SE 4.6 mph - N/A   Clear
4:52 PM 19.9 °F 12.1 °F 3.0 °F 48% 30.44 in 10.0 mi ESE 5.8 mph - N/A   Clear
5:52 PM 18.0 °F - 1.0 °F 48% 30.41 in 10.0 mi North - - N/A   Clear
6:52 PM 15.1 °F 7.7 °F 3.0 °F 59% 30.40 in 10.0 mi SE 4.6 mph - N/A   Clear
7:52 PM 15.1 °F - 5.0 °F 64% 30.42 in 10.0 mi Calm Calm - N/A   Clear
8:52 PM 10.9 °F 2.9 °F 3.0 °F 70% 30.39 in 10.0 mi SE 4.6 mph - N/A   Clear
9:52 PM 12.9 °F - 5.0 °F 71% 30.41 in 10.0 mi Calm Calm - N/A   Clear
10:52 PM 10.9 °F 1.4 °F 3.0 °F 70% 30.38 in 10.0 mi South 5.8 mph - N/A   Clear
11:52 PM 10.9 °F 4.7 °F 3.0 °F 70% 30.35 in 10.0 mi SE 3.5 mph - N/A   Clear